EWG123 EDDB-EDDS

Flight info

Callsign EWG123
Flight time 0h 53m
Altitude 23000
Route KISUC1Q/06R KISUC Z117 ODLUN/N0369F240 DCT GALMA Z94 GORKO T726 TOSTU/N0362F230 T726 LBU
Aircraft A320/M-SDE3FGHIRWY/LB1

Departure

Time 2026-05-07 17:11
Airport Berlin Brandenburg Airport (EDDB)

Arrival

Time 2026-05-07 18:04
Airport Stuttgart Airport (EDDS)
Time Latitude Longitude Altitude Speed Heading
2026-05-07 16:24 52.36112 13.51234 157 ft 0 kts 330°
2026-05-07 17:00 52.36099 13.51246 156 ft 2 kts 330°
2026-05-07 17:01 52.36084 13.51261 156 ft 2 kts 330°
2026-05-07 17:01 52.36070 13.51274 156 ft 2 kts 330°
2026-05-07 17:01 52.36056 13.51291 156 ft 2 kts 299°
2026-05-07 17:01 52.36050 13.51317 157 ft 2 kts 277°
2026-05-07 17:02 52.36048 13.51344 158 ft 3 kts 266°
2026-05-07 17:02 52.36048 13.51350 158 ft 0 kts 264°
2026-05-07 17:04 52.36048 13.51349 158 ft 0 kts 264°
2026-05-07 17:04 52.36046 13.51328 157 ft 10 kts 260°
2026-05-07 17:04 52.36000 13.51150 155 ft 19 kts 247°
2026-05-07 17:04 52.35951 13.50950 154 ft 19 kts 248°
2026-05-07 17:05 52.35900 13.50748 155 ft 19 kts 248°
2026-05-07 17:05 52.35870 13.50644 155 ft 8 kts 233°
2026-05-07 17:05 52.35838 13.50627 154 ft 4 kts 167°
2026-05-07 17:05 52.35820 13.50637 154 ft 3 kts 164°
2026-05-07 17:06 52.35763 13.50579 155 ft 13 kts 246°
2026-05-07 17:06 52.35738 13.50471 157 ft 8 kts 249°
2026-05-07 17:06 52.35719 13.50390 157 ft 13 kts 250°
2026-05-07 17:06 52.35680 13.50216 157 ft 17 kts 249°
2026-05-07 17:07 52.35632 13.50027 155 ft 20 kts 248°
2026-05-07 17:07 52.35577 13.49790 156 ft 23 kts 250°
2026-05-07 17:07 52.35521 13.49550 157 ft 23 kts 248°
2026-05-07 17:07 52.35465 13.49315 159 ft 22 kts 248°
2026-05-07 17:08 52.35407 13.49081 160 ft 22 kts 250°
2026-05-07 17:08 52.35364 13.48896 158 ft 17 kts 250°
2026-05-07 17:08 52.35322 13.48716 158 ft 17 kts 248°
2026-05-07 17:08 52.35272 13.48531 155 ft 18 kts 242°
2026-05-07 17:09 52.35195 13.48494 157 ft 9 kts 168°
2026-05-07 17:09 52.35125 13.48541 159 ft 12 kts 141°
2026-05-07 17:09 52.35090 13.48724 160 ft 20 kts 100°
2026-05-07 17:09 52.35072 13.48939 159 ft 19 kts 109°
2026-05-07 17:10 52.35065 13.49036 159 ft 0 kts 69°
2026-05-07 17:10 52.35079 13.49096 159 ft 29 kts 69°
2026-05-07 17:10 52.35250 13.49816 157 ft 103 kts 69°
2026-05-07 17:10 52.35582 13.51213 164 ft 159 kts 69°
2026-05-07 17:11 52.35981 13.52966 820 ft 162 kts 71°
2026-05-07 17:11 52.36024 13.54776 1734 ft 170 kts 104°
2026-05-07 17:11 52.35256 13.56389 2098 ft 196 kts 150°
2026-05-07 17:11 52.33886 13.56647 2780 ft 208 kts 192°
2026-05-07 17:12 52.32525 13.55753 3515 ft 216 kts 211°
2026-05-07 17:12 52.31247 13.54251 3918 ft 239 kts 218°
2026-05-07 17:12 52.29894 13.52519 4421 ft 259 kts 220°
2026-05-07 17:12 52.28473 13.50667 5308 ft 263 kts 220°
2026-05-07 17:13 52.27204 13.48533 6247 ft 263 kts 238°
2026-05-07 17:13 52.26455 13.45820 7129 ft 264 kts 257°
2026-05-07 17:13 52.26291 13.42834 8040 ft 266 kts 270°
2026-05-07 17:13 52.26301 13.39792 8973 ft 270 kts 269°
2026-05-07 17:14 52.26305 13.36709 9903 ft 274 kts 269°
2026-05-07 17:14 52.26302 13.33579 10718 ft 278 kts 268°
2026-05-07 17:14 52.26297 13.30408 11443 ft 284 kts 268°
2026-05-07 17:14 52.26291 13.27042 11689 ft 307 kts 268°
2026-05-07 17:15 52.26084 13.23497 12090 ft 320 kts 257°
2026-05-07 17:15 52.25405 13.20022 12757 ft 324 kts 245°
2026-05-07 17:15 52.24305 13.16787 13471 ft 328 kts 238°
2026-05-07 17:15 52.23114 13.13593 14199 ft 331 kts 238°
2026-05-07 17:16 52.21912 13.10373 14848 ft 334 kts 238°
2026-05-07 17:16 52.20695 13.07116 15498 ft 338 kts 238°
2026-05-07 17:16 52.19466 13.03836 16137 ft 341 kts 238°
2026-05-07 17:16 52.18222 13.00515 16767 ft 345 kts 238°
2026-05-07 17:17 52.16993 12.97141 17393 ft 348 kts 243°
2026-05-07 17:17 52.16097 12.93462 18007 ft 352 kts 254°
2026-05-07 17:17 52.15542 12.89550 18605 ft 356 kts 256°
2026-05-07 17:17 52.15000 12.85607 19156 ft 359 kts 256°
2026-05-07 17:18 52.14443 12.81632 19721 ft 361 kts 256°
2026-05-07 17:18 52.13876 12.77643 20294 ft 364 kts 256°
2026-05-07 17:18 52.13308 12.73676 20858 ft 366 kts 256°
2026-05-07 17:18 52.12729 12.69628 21435 ft 369 kts 256°
2026-05-07 17:19 52.12147 12.65552 21981 ft 371 kts 256°
2026-05-07 17:19 52.11559 12.61442 22551 ft 374 kts 256°
2026-05-07 17:19 52.10967 12.57317 23092 ft 376 kts 256°
2026-05-07 17:19 52.10368 12.53156 23636 ft 379 kts 256°
2026-05-07 17:20 52.09765 12.48971 23971 ft 381 kts 255°
2026-05-07 17:20 52.09159 12.44783 24056 ft 376 kts 255°
2026-05-07 17:20 52.08572 12.40723 24075 ft 365 kts 255°
2026-05-07 17:20 52.07994 12.36722 24074 ft 362 kts 255°
2026-05-07 17:21 52.07217 12.32851 24074 ft 360 kts 245°
2026-05-07 17:21 52.06009 12.29302 24072 ft 359 kts 235°
2026-05-07 17:21 52.04525 12.26037 24074 ft 359 kts 233°
2026-05-07 17:21 52.03029 12.22781 24073 ft 360 kts 233°
2026-05-07 17:22 52.01535 12.19533 24074 ft 360 kts 233°
2026-05-07 17:22 52.00038 12.16275 24072 ft 360 kts 233°
2026-05-07 17:22 51.98542 12.13021 24075 ft 360 kts 233°
2026-05-07 17:22 51.97046 12.09770 24072 ft 360 kts 233°
2026-05-07 17:23 51.95547 12.06517 24071 ft 360 kts 233°
2026-05-07 17:23 51.94050 12.03273 24069 ft 360 kts 233°
2026-05-07 17:23 51.92549 12.00019 24066 ft 360 kts 233°
2026-05-07 17:23 51.91051 11.96772 24065 ft 360 kts 233°
2026-05-07 17:24 51.89550 11.93523 24064 ft 361 kts 233°
2026-05-07 17:24 51.88045 11.90280 24065 ft 361 kts 233°
2026-05-07 17:24 51.86530 11.87038 24067 ft 361 kts 231°
2026-05-07 17:24 51.84783 11.84128 24065 ft 361 kts 220°
2026-05-07 17:25 51.82721 11.81804 24065 ft 362 kts 210°
2026-05-07 17:25 51.80495 11.79885 24064 ft 363 kts 209°
2026-05-07 17:25 51.78262 11.77970 24063 ft 363 kts 209°
2026-05-07 17:25 51.76031 11.76053 24064 ft 363 kts 209°
2026-05-07 17:26 51.74553 11.74783 24066 ft 364 kts 209°
2026-05-07 17:26 51.71594 11.72242 24065 ft 364 kts 209°
2026-05-07 17:26 51.69358 11.70322 24063 ft 364 kts 209°
2026-05-07 17:26 51.67116 11.68398 24065 ft 365 kts 209°
2026-05-07 17:27 51.64882 11.66482 24069 ft 365 kts 209°
2026-05-07 17:27 51.62645 11.64564 24063 ft 365 kts 209°
2026-05-07 17:27 51.60402 11.62641 24062 ft 365 kts 209°
2026-05-07 17:27 51.58162 11.60722 24061 ft 365 kts 209°
2026-05-07 17:28 51.56644 11.59422 24061 ft 365 kts 209°
2026-05-07 17:28 51.54399 11.57503 24059 ft 366 kts 209°
2026-05-07 17:28 51.52154 11.55589 24063 ft 366 kts 209°
2026-05-07 17:28 51.49907 11.53673 24058 ft 366 kts 208°
2026-05-07 17:29 51.47683 11.51785 24058 ft 366 kts 208°
2026-05-07 17:29 51.45430 11.49878 24060 ft 366 kts 208°
2026-05-07 17:29 51.43175 11.47971 24060 ft 367 kts 208°
2026-05-07 17:29 51.40920 11.46065 24055 ft 367 kts 208°
2026-05-07 17:30 51.38563 11.44507 24050 ft 368 kts 198°
2026-05-07 17:30 51.36108 11.43330 24053 ft 368 kts 198°
2026-05-07 17:30 51.33657 11.42148 24055 ft 368 kts 198°
2026-05-07 17:30 51.31205 11.40959 24054 ft 369 kts 198°
2026-05-07 17:31 51.28746 11.39766 24050 ft 369 kts 198°
2026-05-07 17:31 51.26294 11.38579 24052 ft 369 kts 198°
2026-05-07 17:31 51.23837 11.37395 24051 ft 369 kts 198°
2026-05-07 17:31 51.21379 11.36212 24050 ft 369 kts 198°
2026-05-07 17:32 51.18914 11.35027 24050 ft 369 kts 198°
2026-05-07 17:32 51.16451 11.33844 24055 ft 370 kts 198°
2026-05-07 17:32 51.13990 11.32668 24060 ft 370 kts 198°
2026-05-07 17:32 51.11521 11.31488 24055 ft 370 kts 198°
2026-05-07 17:33 51.09056 11.30312 24049 ft 370 kts 198°
2026-05-07 17:33 51.06588 11.29134 24052 ft 370 kts 198°
2026-05-07 17:33 51.04119 11.27958 24062 ft 371 kts 198°
2026-05-07 17:33 51.01647 11.26783 24061 ft 371 kts 198°
2026-05-07 17:34 50.99179 11.25604 24052 ft 371 kts 198°
2026-05-07 17:34 50.96704 11.24422 24058 ft 371 kts 198°
2026-05-07 17:34 50.94284 11.23024 24058 ft 370 kts 206°
2026-05-07 17:34 50.91975 11.21229 24057 ft 370 kts 207°
2026-05-07 17:35 50.89665 11.19426 24060 ft 370 kts 207°
2026-05-07 17:35 50.87348 11.17621 24057 ft 370 kts 207°
2026-05-07 17:35 50.85041 11.15814 24061 ft 370 kts 209°
2026-05-07 17:35 50.82855 11.13670 24060 ft 370 kts 214°
2026-05-07 17:36 50.80720 11.11417 24054 ft 370 kts 215°
2026-05-07 17:36 50.78580 11.09157 24054 ft 369 kts 215°
2026-05-07 17:36 50.76442 11.06901 24060 ft 369 kts 215°
2026-05-07 17:36 50.74299 11.04638 24048 ft 369 kts 215°
2026-05-07 17:37 50.72179 11.02403 24055 ft 369 kts 215°
2026-05-07 17:37 50.70038 11.00129 24048 ft 369 kts 215°
2026-05-07 17:37 50.67923 10.97833 24043 ft 369 kts 216°
2026-05-07 17:37 50.65818 10.95512 24046 ft 369 kts 216°
2026-05-07 17:38 50.63747 10.93217 24035 ft 369 kts 216°
2026-05-07 17:38 50.61645 10.90890 24035 ft 369 kts 216°
2026-05-07 17:38 50.59544 10.88574 24041 ft 369 kts 216°
2026-05-07 17:38 50.57438 10.86269 24041 ft 369 kts 216°
2026-05-07 17:39 50.55330 10.83970 24035 ft 369 kts 216°
2026-05-07 17:39 50.53220 10.81669 24032 ft 369 kts 216°
2026-05-07 17:39 50.51111 10.79370 24036 ft 369 kts 216°
2026-05-07 17:39 50.49004 10.77073 24036 ft 369 kts 216°
2026-05-07 17:40 50.46896 10.74781 24034 ft 369 kts 216°
2026-05-07 17:40 50.44785 10.72491 24032 ft 369 kts 215°
2026-05-07 17:40 50.42674 10.70203 24037 ft 369 kts 215°
2026-05-07 17:40 50.40562 10.67917 24035 ft 369 kts 215°
2026-05-07 17:41 50.38457 10.65633 24037 ft 369 kts 215°
2026-05-07 17:41 50.36345 10.63342 24038 ft 369 kts 215°
2026-05-07 17:41 50.34239 10.61060 24037 ft 369 kts 215°
2026-05-07 17:41 50.32125 10.58779 24040 ft 369 kts 215°
2026-05-07 17:42 50.30010 10.56506 24044 ft 369 kts 215°
2026-05-07 17:42 50.27896 10.54240 24036 ft 369 kts 215°
2026-05-07 17:42 50.25782 10.51972 24037 ft 369 kts 215°
2026-05-07 17:42 50.23710 10.49612 24034 ft 368 kts 221°
2026-05-07 17:43 50.21933 10.46747 24036 ft 367 kts 232°
2026-05-07 17:43 50.20511 10.43443 24036 ft 367 kts 239°
2026-05-07 17:43 50.19185 10.40030 24037 ft 367 kts 239°
2026-05-07 17:43 50.17855 10.36628 24036 ft 368 kts 238°
2026-05-07 17:44 50.16519 10.33228 24039 ft 368 kts 238°
2026-05-07 17:44 50.14993 10.30035 24038 ft 368 kts 224°
2026-05-07 17:44 50.12929 10.27713 24038 ft 368 kts 206°
2026-05-07 17:44 50.10577 10.26117 24036 ft 369 kts 204°
2026-05-07 17:45 50.08206 10.24563 24034 ft 369 kts 204°
2026-05-07 17:45 50.05836 10.23019 24036 ft 370 kts 204°
2026-05-07 17:45 50.03493 10.21493 24041 ft 370 kts 204°
2026-05-07 17:45 50.01156 10.19826 24038 ft 370 kts 207°
2026-05-07 17:46 49.98859 10.18028 24037 ft 370 kts 208°
2026-05-07 17:46 49.96588 10.16159 24039 ft 370 kts 209°
2026-05-07 17:46 49.94319 10.14265 24039 ft 370 kts 209°
2026-05-07 17:46 49.92049 10.12388 24045 ft 370 kts 209°
2026-05-07 17:47 49.89770 10.10531 24041 ft 370 kts 208°
2026-05-07 17:47 49.87486 10.08690 24040 ft 370 kts 208°
2026-05-07 17:47 49.85094 10.07208 24047 ft 371 kts 198°
2026-05-07 17:47 49.82629 10.06021 24041 ft 371 kts 198°
2026-05-07 17:48 49.80161 10.04830 24042 ft 371 kts 199°
2026-05-07 17:48 49.77676 10.03626 24056 ft 381 kts 199°
2026-05-07 17:48 49.75111 10.02384 24057 ft 390 kts 199°
2026-05-07 17:48 49.72515 10.01131 24058 ft 392 kts 199°
2026-05-07 17:49 49.69936 9.99889 23970 ft 383 kts 199°
2026-05-07 17:49 49.67414 9.98674 23418 ft 380 kts 199°
2026-05-07 17:49 49.64852 9.97438 22506 ft 389 kts 199°
2026-05-07 17:49 49.62309 9.96212 22335 ft 376 kts 199°
2026-05-07 17:50 49.59829 9.95019 21720 ft 375 kts 199°
2026-05-07 17:50 49.57291 9.93803 20796 ft 386 kts 199°
2026-05-07 17:50 49.54746 9.92586 20358 ft 381 kts 199°
2026-05-07 17:50 49.52217 9.91375 19766 ft 381 kts 199°
2026-05-07 17:51 49.49684 9.90161 19227 ft 380 kts 199°
2026-05-07 17:51 49.47167 9.88958 18652 ft 379 kts 199°
2026-05-07 17:51 49.44644 9.87755 18043 ft 380 kts 199°
2026-05-07 17:51 49.42124 9.86554 17469 ft 378 kts 199°
2026-05-07 17:52 49.39622 9.85360 16920 ft 376 kts 199°
2026-05-07 17:52 49.37134 9.84173 16410 ft 373 kts 199°
2026-05-07 17:52 49.34657 9.82997 15886 ft 371 kts 199°
2026-05-07 17:52 49.32230 9.81851 15379 ft 369 kts 199°
2026-05-07 17:53 49.29745 9.80672 14787 ft 369 kts 199°
2026-05-07 17:53 49.27337 9.79526 14354 ft 367 kts 198°
2026-05-07 17:53 49.24907 9.78373 13947 ft 365 kts 198°
2026-05-07 17:53 49.22486 9.77227 13492 ft 362 kts 198°
2026-05-07 17:54 49.20080 9.76094 13215 ft 361 kts 198°
2026-05-07 17:54 49.17689 9.74969 12946 ft 359 kts 198°
2026-05-07 17:54 49.15301 9.73850 12540 ft 359 kts 198°
2026-05-07 17:54 49.12896 9.72724 11841 ft 361 kts 198°
2026-05-07 17:55 49.10541 9.71625 11690 ft 346 kts 198°
2026-05-07 17:55 49.08290 9.70572 11560 ft 332 kts 199°
2026-05-07 17:55 49.06126 9.69558 11426 ft 319 kts 199°
2026-05-07 17:55 49.04024 9.68573 11075 ft 314 kts 199°
2026-05-07 17:56 49.01951 9.67597 10560 ft 311 kts 199°
2026-05-07 17:56 48.99929 9.66647 10370 ft 297 kts 199°
2026-05-07 17:56 48.97989 9.65739 9945 ft 289 kts 199°
2026-05-07 17:56 48.96079 9.64846 9289 ft 285 kts 199°
2026-05-07 17:57 48.94206 9.63973 8780 ft 277 kts 199°
2026-05-07 17:57 48.92984 9.63402 8519 ft 277 kts 199°
2026-05-07 17:57 48.90531 9.62255 7977 ft 275 kts 199°
2026-05-07 17:57 48.88704 9.61402 7577 ft 275 kts 199°
2026-05-07 17:58 48.86887 9.60557 7182 ft 269 kts 199°
2026-05-07 17:58 48.85134 9.59744 6927 ft 256 kts 199°
2026-05-07 17:58 48.83447 9.58964 6464 ft 252 kts 199°
2026-05-07 17:58 48.81776 9.58188 5944 ft 251 kts 199°
2026-05-07 17:59 48.80185 9.57187 5428 ft 245 kts 217°
2026-05-07 17:59 48.78861 9.55583 4930 ft 242 kts 223°
2026-05-07 17:59 48.77623 9.53922 4637 ft 232 kts 224°
2026-05-07 17:59 48.76457 9.52341 4374 ft 222 kts 224°
2026-05-07 18:00 48.75330 9.50812 4122 ft 213 kts 224°
2026-05-07 18:00 48.74269 9.49225 4009 ft 212 kts 238°
2026-05-07 18:00 48.73695 9.47268 4009 ft 200 kts 256°
2026-05-07 18:00 48.73327 9.45291 4014 ft 187 kts 256°
2026-05-07 18:01 48.72980 9.43426 3805 ft 181 kts 256°
2026-05-07 18:01 48.72641 9.41612 3586 ft 178 kts 257°
2026-05-07 18:01 48.72306 9.39825 3351 ft 174 kts 257°
2026-05-07 18:01 48.71978 9.38073 3116 ft 171 kts 257°
2026-05-07 18:02 48.71348 9.34719 2668 ft 159 kts 257°
2026-05-07 18:02 48.71051 9.33145 2435 ft 152 kts 257°
2026-05-07 18:02 48.70768 9.31638 2242 ft 148 kts 257°
2026-05-07 18:03 48.70491 9.30162 2033 ft 146 kts 257°
2026-05-07 18:03 48.70221 9.28655 1840 ft 149 kts 258°
2026-05-07 18:03 48.69933 9.27161 1618 ft 148 kts 256°
2026-05-07 18:03 48.69648 9.25699 1416 ft 142 kts 256°
2026-05-07 18:04 48.69379 9.24277 1245 ft 140 kts 257°
2026-05-07 18:04 48.69148 9.23020 1224 ft 101 kts 252°
2026-05-07 18:04 48.68998 9.22249 1240 ft 51 kts 253°
2026-05-07 18:04 48.68941 9.21854 1246 ft 32 kts 268°
2026-05-07 18:05 48.68968 9.21586 1253 ft 15 kts 284°
2026-05-07 18:05 48.68977 9.21534 1256 ft 0 kts 284°
2026-05-07 18:06 48.68982 9.21505 1252 ft 0 kts 284°
2026-05-07 18:07 48.68982 9.21503 1252 ft 2 kts 284°
2026-05-07 18:07 48.68994 9.21433 1261 ft 9 kts 284°
2026-05-07 18:08 48.68990 9.21263 1266 ft 26 kts 257°
2026-05-07 18:08 48.68938 9.20997 1264 ft 25 kts 253°
2026-05-07 18:08 48.68889 9.20750 1271 ft 24 kts 254°
2026-05-07 18:08 48.68843 9.20517 1277 ft 22 kts 252°
2026-05-07 18:09 48.68802 9.20293 1283 ft 21 kts 255°
2026-05-07 18:09 48.68763 9.20086 1285 ft 20 kts 253°
2026-05-07 18:09 48.68821 9.19906 1287 ft 20 kts 315°
2026-05-07 18:09 48.68885 9.19763 1295 ft 14 kts 249°
2026-05-07 18:10 48.68858 9.19635 1298 ft 11 kts 257°
2026-05-07 18:10 48.68841 9.19514 1303 ft 12 kts 258°
2026-05-07 18:10 48.68830 9.19437 1306 ft 0 kts 257°
2026-05-07 18:10 48.68816 9.19389 1307 ft 13 kts 233°
2026-05-07 18:11 48.68755 9.19389 1304 ft 8 kts 162°
2026-05-07 18:11 48.68743 9.19394 1304 ft 0 kts 162°